Wind_Speed
18 17 14 13 12 7 7 4 4 6 9 6 3 4 4 5 12 12 13 8 8 9 11 9 9 5 2 2 10 9 5 5 5 15 25 5 4 6 6 5 10 9 17 18
19 17 18 15 14 13 8 3 6 9 6 6 9 8 14 11 10 11 5 6 8 4 5 6 11 8 5 6 2 2 6 2 6 12 10 6 5 6 6 11 4 7 5 7
22 20 20 20 18 17 13 1 3 5 4 11 15 16 16 14 12 19 21 10 11 10 12 14 8 11 5 9 6 6 8 6 8 6 15 18 20 16 13 7 5 10 10 15
24 24 23 22 21 20 15 5 7 9 5 9 15 17 15 17 19 12 12 12 18 15 8 14 15 16 12 11 7 10 8 6 10 14 19 22 23 26 23 21 19 16 19 18
30 28 27 26 26 20 18 4 5 9 12 18 16 13 9 16 20 9 16 22 19 19 12 11 2 10 10 8 9 11 10 6 12 16 17 20 24 25 24 26 24 23 15 23
31 31 31 30 29 24 8 8 12 6 10 16 15 16 16 12 13 4 8 6 4 6 9 10 8 13 12 11 10 10 12 11 12 19 19 21 18 16 25 27 25 22 16 20
32 32 32 32 33 31 24 7 5 5 11 14 16 19 18 14 10 6 5 7 9 2 1 8 12 16 18 20 21 18 14 16 13 16 20 22 21 24 31 28 25 15 16 17
26 29 30 32 33 34 28 21 9 6 11 14 19 22 9 4 8 11 11 11 12 7 6 6 8 9 13 20 24 25 24 18 13 15 18 24 27 23 19 21 21 21 21 10
20 23 26 28 29 30 29 26 24 6 6 14 16 6 12 9 11 8 6 11 8 9 7 8 10 13 18 15 10 10 7 9 15 14 18 18 10 19 16 17 18 18 13 13
11 15 18 18 25 24 27 14 28 5 4 10 3 5 5 5 7 7 5 5 4 5 5 9 13 15 9 6 4 5 8 5 11 15 15 5 15 21 6 6 7 25 21 14
1 8 11 17 17 17 16 8 28 12 5 8 6 9 9 6 6 7 2 4 6 4 5 5 3 3 0 4 6 2 2 5 5 5 4 2 14 9 8 10 13 17 24 11
4 6 10 9 9 20 16 3 16 13 2 3 6 11 13 9 6 4 3 4 2 1 3 2 4 3 3 5 4 3 2 2 5 2 4 8 3 4 8 13 16 11 18 13
11 11 8 6 9 16 10 10 12 7 2 4 4 9 14 14 12 7 6 3 2 1 2 3 3 4 6 5 5 7 2 3 3 7 5 8 7 8 5 7 16 17 13 11
5 4 4 6 14 16 12 8 13 5 2 3 6 5 4 6 11 11 11 6 7 4 4 3 3 5 5 7 11 10 9 7 8 9 7 10 1 6 6 9 12 12 18 10
8 6 7 11 18 14 8 10 14 8 4 2 3 6 7 7 9 11 13 10 9 6 6 4 6 8 7 9 11 9 10 7 7 8 8 9 10 9 9 11 9 5 9 11
14 14 15 19 15 9 6 2 10 12 5 3 3 3 6 5 9 10 9 8 7 7 7 5 6 13 6 7 11 14 14 11 12 13 12 13 14 14 10 10 5 6 6 12
20 19 17 14 6 2 3 3 4 10 5 2 3 4 5 3 5 5 5 7 5 5 6 6 10 11 5 7 14 18 18 19 18 18 16 14 15 11 11 7 7 7 0 5
15 13 11 8 6 2 5 7 4 3 5 2 3 2 5 4 3 3 3 4 4 4 7 8 9 9 9 9 16 17 17 19 20 18 13 14 15 13 14 11 8 9 8 7
12 9 4 3 4 2 2 4 1 2 2 2 3 3 2 2 2 1 2 2 4 4 6 10 6 8 9 12 18 20 22 23 23 21 17 13 14 13 14 11 9 10 8 6
4 3 1 1 2 1 5 2 0 2 2 3 3 1 1 1 1 1 3 1 2 3 1 5 3 6 8 9 13 15 15 14 16 17 15 14 13 15 12 11 10 10 8 7
4 2 2 1 2 3 1 1 2 3 3 3 2 3 3 2 3 2 1 2 2 3 1 2 2 1 10 12 13 12 14 12 2 7 12 12 10 12 9 6 6 8 7 8
7 5 1 2 1 2 3 2 1 4 1 2 3 2 3 2 1 3 3 3 2 3 1 3 2 6 8 12 12 14 17 15 12 6 3 5 3 6 5 4 6 9 10 15
4 3 1 3 2 3 3 5 3 2 3 3 3 2 2 3 2 3 3 3 4 2 3 2 3 7 9 11 11 12 12 15 16 14 14 11 10 8 6 4 5 10 11 13
2 2 3 3 3 4 2 4 4 3 2 3 4 4 2 3 3 3 3 3 2 3 3 2 5 8 8 9 10 12 14 12 10 11 8 6 5 6 7 8 9 10 8 11
3 2 4 4 4 2 3 3 4 5 4 3 4 4 3 3 3 3 3 3 4 4 1 3 3 6 8 10 10 11 11 9 8 7 6 5 4 5 6 8 11 12 10 11
3 4 4 4 4 4 3 5 7 4 3 2 3 3 3 4 3 4 6 3 2 2 4 3 3 6 7 8 8 9 9 9 7 7 6 4 3 3 4 7 8 8 8 8
3 3 3 6 7 6 6 6 6 2 3 2 2 4 4 1 3 3 2 2 4 4 3 2 4 5 6 6 7 7 8 9 8 7 5 5 5 2 3 3 5 5 7 8
Wind_Direction
266 261 262 255 256 246 231 258 243 159 170 212 211 228 199 302 255 228 222 241 233 246 270 277 269 271 253 315 341 353 64 339 316 307 299 294 229 329 355 29 336 319 273 240
268 270 250 246 240 225 236 238 247 233 221 239 231 244 262 255 243 236 202 216 225 248 232 237 242 236 212 212 288 68 349 27 328 306 267 47 25 336 342 314 251 294 317 320
265 261 258 241 233 225 225 232 244 218 213 246 254 260 261 258 248 263 258 232 227 222 236 230 249 259 247 193 204 184 187 200 235 265 288 297 293 286 272 267 282 331 276 290
257 252 252 241 234 223 205 206 234 241 217 227 239 247 256 269 263 239 252 241 235 230 241 249 235 241 233 220 224 199 215 229 228 246 268 287 291 288 292 287 274 267 290 286
255 248 243 238 233 223 209 206 222 238 257 259 251 231 241 251 264 272 259 236 236 229 211 209 242 260 262 275 264 227 224 256 267 266 276 273 270 273 278 273 281 283 280 265
254 246 241 235 229 210 213 223 250 247 252 244 250 252 246 254 261 283 246 293 306 300 300 269 252 268 270 250 255 274 279 268 268 272 277 283 275 265 263 274 269 269 273 256
249 243 238 231 225 214 219 198 228 210 244 248 256 256 256 241 240 256 254 227 255 247 211 302 278 265 261 258 256 248 237 243 259 269 278 269 271 261 255 259 266 276 264 247
248 241 236 230 223 218 216 217 206 214 245 252 255 253 244 221 245 233 253 253 252 247 280 285 267 257 245 248 246 245 233 232 248 254 262 273 277 272 308 299 260 244 241 221
249 239 237 229 219 211 215 223 216 239 246 245 281 260 227 222 247 255 253 261 261 248 243 244 244 253 264 273 289 70 320 293 218 228 252 264 357 337 327 321 270 274 261 227
251 239 229 216 204 204 216 221 208 163 233 247 165 263 271 226 229 247 242 202 221 215 222 238 245 258 275 255 278 309 326 341 263 223 242 270 350 333 295 260 337 314 294 240
160 197 188 187 197 203 207 196 191 185 226 245 225 248 258 258 244 249 165 215 211 194 236 257 256 273 339 264 287 334 299 316 5 328 284 332 3 2 9 321 309 316 318 169
36 182 183 208 187 175 139 110 185 193 264 314 294 261 261 293 330 315 233 308 191 8 273 256 286 271 261 292 315 195 321 0 322 260 300 276 215 250 303 335 323 306 315 329
78 91 119 152 167 159 154 139 147 148 229 258 246 234 240 244 248 284 281 267 307 245 307 316 313 293 352 308 313 329 309 11 275 318 325 316 204 257 256 335 319 319 313 321
73 98 118 157 163 163 167 141 163 168 202 244 189 162 215 221 226 232 241 261 267 289 255 234 265 282 299 291 318 298 299 312 281 301 298 342 210 291 328 315 308 343 340 342
66 88 113 136 152 152 150 173 192 191 271 311 118 166 177 207 218 228 229 239 247 259 268 245 258 275 286 280 277 266 268 278 270 265 322 309 291 299 304 312 320 25 348 333
68 103 110 115 140 132 140 134 208 220 269 305 220 119 176 189 210 218 221 226 234 243 263 268 272 270 267 267 278 293 303 285 269 274 287 293 294 290 283 285 307 35 19 337
83 80 78 89 106 237 25 24 359 191 251 280 263 184 158 209 213 222 228 228 243 256 271 257 258 270 197 260 273 288 292 289 286 284 277 270 273 271 283 252 275 302 150 307
65 63 66 67 72 54 52 39 48 208 261 268 279 150 170 190 218 235 225 240 235 235 243 260 269 272 269 269 277 289 313 313 308 297 276 268 272 268 273 275 274 266 254 207
335 331 354 333 26 36 28 28 27 296 250 268 260 268 163 164 227 287 252 275 268 273 257 261 270 271 256 311 348 320 302 292 286 281 285 271 274 254 264 275 263 254 244 243
358 324 30 38 69 257 306 233 312 297 242 234 264 271 219 275 63 286 306 100 246 286 272 309 265 269 19 341 299 292 295 286 273 257 246 249 256 263 251 257 250 240 221 143
5 346 23 116 328 250 258 268 251 204 234 216 270 329 310 77 292 326 116 288 254 259 76 293 272 300 359 338 337 341 347 3 352 240 247 257 267 256 231 240 246 236 183 143
322 328 320 342 292 259 246 244 237 248 326 146 287 49 347 99 206 261 194 250 248 262 271 260 252 42 10 349 351 358 3 356 352 351 239 229 297 360 325 315 299 245 116 108
253 247 295 251 168 247 246 179 217 217 181 209 234 258 267 160 222 245 229 234 240 327 237 231 63 33 17 355 357 359 9 2 4 22 17 35 38 26 31 51 69 87 99 111
274 228 264 244 187 237 253 308 348 37 275 265 291 286 263 202 216 240 248 226 256 255 237 160 62 11 1 8 360 2 5 3 8 8 30 43 60 73 70 74 88 104 113 118
269 251 253 230 250 292 289 291 264 252 251 303 296 257 237 199 218 222 251 217 238 225 198 81 32 6 11 12 359 360 356 355 3 15 30 38 46 64 68 70 93 99 97 96
248 239 259 264 283 270 262 264 260 266 260 235 240 272 247 217 216 208 223 249 244 71 68 80 25 22 20 6 356 354 350 345 353 6 9 22 30 38 105 102 98 111 118 115
236 241 268 276 283 284 287 275 259 231 232 239 311 263 240 264 236 237 258 326 78 55 96 69 43 26 18 1 355 349 345 350 349 355 359 355 353 155 173 112 113 112 123 132
Height
724 726 725 725 728 727 729 725 721 712 715 716 715 702 704 697 686 687 692 698 696 698 695 697 690 685 684 690 683 679 687 681 662 653 646 628 634 649 656 656 638 625 608 575
720 719 720 721 722 725 723 717 713 709 713 706 705 701 697 691 693 688 694 693 695 691 694 692 681 679 677 679 675 690 686 684 678 646 626 648 657 663 671 683 670 645 644 625
712 712 713 716 717 720 722 723 711 707 707 697 691 687 685 689 681 680 672 682 681 689 683 678 682 669 665 670 674 679 685 691 686 673 656 654 655 648 651 664 662 655 654 632
704 705 707 708 710 713 719 715 706 690 693 694 692 685 683 678 672 678 672 672 674 676 683 671 672 663 660 664 666 672 677 681 677 672 665 652 647 639 632 637 641 649 632 633
694 696 698 700 702 707 710 706 701 694 687 682 679 693 689 684 675 681 674 670 663 665 678 671 673 664 663 667 661 657 660 670 661 662 651 650 645 635 624 621 615 608 613 620
681 684 686 690 694 699 700 700 694 695 685 681 680 674 672 674 670 680 677 683 684 682 681 673 674 675 665 663 671 672 668 667 661 655 640 637 637 630 618 608 604 601 601 601
669 671 675 679 684 689 692 695 696 695 684 679 672 666 664 670 676 683 672 676 675 673 672 671 668 666 663 660 658 659 670 673 664 652 645 650 612 608 599 595 590 590 589 588
656 660 664 669 674 680 685 688 693 687 679 672 668 667 680 670 673 673 669 668 668 668 671 678 673 661 655 646 638 635 636 648 658 653 636 617 608 601 597 595 581 581 578 584
648 651 655 660 665 672 678 681 686 685 681 670 667 679 672 671 666 665 672 669 669 671 671 672 674 653 636 628 618 626 637 646 645 641 637 626 619 623 620 611 585 576 571 576
644 646 649 654 659 667 673 674 681 682 680 669 678 671 671 669 663 662 662 666 670 671 675 669 658 646 638 643 652 649 635 635 635 629 633 617 653 636 621 617 620 627 589 572
644 646 648 654 660 666 671 670 674 677 676 671 673 673 669 665 663 663 665 668 666 673 673 662 658 653 657 641 637 643 649 648 644 633 626 637 649 633 642 648 636 630 596 576
647 648 650 654 658 662 664 673 672 678 681 677 674 672 670 670 668 668 666 663 664 664 664 662 655 650 641 638 638 630 643 645 645 651 646 641 649 652 650 648 643 632 614 589
653 653 654 656 659 663 668 672 674 680 681 675 672 667 669 671 672 673 671 666 665 664 665 663 658 653 639 642 638 635 632 635 647 646 633 629 639 643 641 643 642 632 616 602
658 658 658 659 661 664 668 672 676 678 680 671 664 666 667 668 670 671 671 671 670 666 662 661 661 656 642 641 638 639 634 635 634 631 625 629 630 630 631 633 638 634 623 613
662 661 662 663 666 669 671 673 676 677 677 664 657 663 665 666 667 667 668 669 668 666 662 659 657 647 644 641 637 633 625 625 629 629 626 628 629 629 630 628 626 630 633 624
666 665 666 667 669 672 673 676 678 676 674 668 660 660 661 663 664 664 664 664 663 660 654 652 647 646 648 647 636 626 624 623 623 624 625 626 626 624 624 624 624 624 628 627
673 673 672 673 674 674 673 674 675 675 675 670 660 654 658 661 661 661 661 662 660 661 658 655 650 645 654 646 636 626 623 620 617 615 615 618 621 620 617 620 621 622 623 632
681 680 678 677 677 677 677 677 677 677 674 669 664 652 654 659 656 657 655 658 659 658 653 648 645 639 636 635 626 624 622 621 619 614 613 616 616 616 616 616 618 619 619 621
683 681 680 679 679 681 681 679 678 677 678 673 662 652 655 657 655 657 658 658 657 648 647 642 637 633 634 629 641 640 637 633 625 620 617 614 613 612 612 611 614 614 614 614
681 680 679 681 683 682 681 679 679 677 672 667 660 651 654 655 656 659 661 664 663 659 650 645 642 639 641 652 651 643 635 627 621 617 617 613 613 610 608 608 609 609 610 613
682 681 681 682 682 680 677 678 676 669 666 657 652 652 652 661 660 658 663 665 657 655 651 650 643 645 652 653 648 640 631 621 619 617 616 614 612 611 605 606 608 609 610 615
687 685 683 682 681 678 676 672 670 665 653 653 652 653 655 658 664 664 666 661 655 655 647 647 643 646 651 651 649 641 636 629 620 613 611 611 609 611 614 614 615 612 614 622
685 682 680 677 678 680 675 669 660 661 657 656 655 659 660 663 665 665 661 660 651 644 646 637 637 642 653 651 650 645 642 637 630 626 622 619 625 626 625 626 626 625 626 628
679 680 679 675 672 665 660 656 655 658 658 658 658 660 662 661 664 658 659 648 647 643 639 632 641 651 651 649 652 648 646 644 640 637 635 634 634 634 633 632 631 632 635 637
679 675 675 666 659 661 661 661 660 658 657 659 661 660 658 659 659 653 648 648 642 627 634 639 652 649 649 652 653 651 650 647 643 641 640 639 638 636 635 635 635 637 638 639
677 671 669 663 664 664 666 665 661 658 658 659 659 658 655 651 645 645 640 630 626 635 641 652 650 651 653 656 656 654 652 649 646 644 642 641 641 640 640 640 640 641 641 642
671 668 666 666 663 663 661 659 655 656 658 659 656 656 646 643 639 635 627 633 642 647 651 651 652 654 656 658 656 655 651 648 646 645 644 642 641 641 640 639 641 642 643 644